Current weather by "City, St" or "zip code"  
 

Current Conditions: Bowling Green, Bowling Green-Warren County Regional Airport, KY

Light Rain Fog/Mist


51.0 F

Last Updated on Oct 29 2020, 7:53 pm CDT
Humidity: 89%
Wind Speed: NW 6.9 mph
Barometer 29.84 in
Dewpoint: 48.0 F
Visibility: 4.00 mi
Precip: Trace
Heat Index: NA
Wind Chill: 48 F
Current conditions at:

Bowling Green, Bowling Green-Warren County Regional Airport, KY (KBWG)

Lat: 36.96444 Lon: 86.41944

Local Radar Image active severe weather and emergency alerts image image weather storm and storm spotter reports image weather observation monitoring service image
Local
Radar
Active
Alerts
Storm Reports Obs
Monitoring

Sign-up For Email & Text Message Weather Alert Notification Services



Advertise Here

Observation History for Bowling Green, Bowling Green-Warren County Regional Airport, KY


Time Wind
(mph)
Vis
(mi)
Weather Precip (in) Temperature (F) Relative
Humidity
Wind
Chill
(F)
Heat
Index
(F)
Pressure
Air Dwpt altimeter
(in)
sea level
(mb)
Rmks
7:53 pm CDT NW 6.9 4.00 Light Rain Fog/Mist Trace 51.0 48.0 89% 48 NA 29.84 1010.1
6:53 pm CDT NW 6.9 6.00 Fog/Mist -- 51.0 48.0 89% 48 NA 29.78 1008.3
5:53 pm CDT 4.6 10.00 Overcast Trace 52.0 48.9 89% 51 NA 29.73 1006.4
4:53 pm CDT NW 9.2 G 20.7 10.00 Light Rain 00.01 56.0 53.1 90% 54 NA 29.68 1004.6
3:53 pm CDT W 13.8 G 24.2 3.00 Light Rain Fog/Mist 00.01 59.0 55.9 90% 56 NA 29.63 1003.2
2:53 pm CDT SW 12.7 G 25.3 4.00 Light Rain Fog/Mist Trace 61.0 57.9 90% 59 NA 29.59 1001.8
1:53 pm CDT W 17.3 G 26.5 10.00 Overcast -- 64.0 57.9 81% NA NA 29.58 1001.5
12:53 pm CDT SW 12.7 10.00 Overcast -- 64.0 59.0 84% NA NA 29.60 1002.1
11:53 am CDT W 9.2 3.00 Fog/Mist -- 64.0 62.1 93% NA NA 29.59 1001.7
10:53 am CDT N 0.0 10.00 Overcast Trace 63.0 60.1 90% NA NA 29.59 1001.7
9:53 am CDT 6.9 2.00 Light Rain Fog/Mist 00.02 64.0 63.0 96% NA NA 29.58 1001.2
8:53 am CDT S 3.5 10.00 Overcast 00.09 67.0 64.9 93% NA NA 29.54 1000.1
7:53 am CDT N 0.0 2.50 Light Rain Fog/Mist 00.02 65.0 63.0 93% NA NA 29.53 999.6
6:53 am CDT N 0.0 7.00 Light Rain Trace 65.0 63.0 93% NA NA 29.52 999.2
5:53 am CDT N 0.0 6.00 Fog/Mist -- 64.0 62.1 93% NA NA 29.50 998.8
4:53 am CDT N 0.0 10.00 Overcast -- 65.0 63.0 93% NA NA 29.52 999.4
3:53 am CDT N 0.0 10.00 Overcast -- 65.0 63.0 93% NA NA 29.54 1000.1
2:53 am CDT E 5.8 10.00 Mostly Cloudy -- 64.0 62.1 93% NA NA 29.57 1001.1
12:53 am CDT E 6.9 10.00 Overcast Trace 63.0 61.0 93% 63 NA 29.67 1004.3
11:53 pm CDT NE 5.8 10.00 Light Rain 00.05 63.0 61.0 93% 63 NA 29.72 1005.9
10:53 pm CDT NE 3.5 3.00 Rain Fog/Mist 00.20 63.0 61.0 93% NA NA 29.76 1007.5
9:53 pm CDT NE 9.2 3.00 Rain Fog/Mist 00.36 62.0 60.1 93% 61 NA 29.79 1008.5
8:53 pm CDT NE 11.5 2.50 Rain Fog/Mist 00.32 61.0 59.0 93% 59 NA 29.83 1009.8

Regional Weather Observation


Glasgow, Glasgow Municipal Airport, KY (KGLW)

Heavy Drizzle
50.0 F

Madisonville Municipal Airport, KY (K2I0)

Rain
50.0 F

Owensboro, Owensboro-Daviess County Airport, KY (KOWB)

Light Rain Fog/Mist
47.0 F

Fort Knox, KY (KFTK)

Light Rain Fog/Mist
47.0 F

Clarksville Outlaw Field, TN (KCKV)

Light Rain Fog/Mist
47.0 F

Nashville, Nashville International Airport, TN (KBNA)

Light Rain Fog/Mist
53.0 F